"startDT [UTC]","vpos","CH4 [ppm]","stdev(CH4) [ppm]","CO2 [ppm]","stdev(CO2) [ppm]","H2O_reported [%]","stdev(H2O_reported)","CavityPressure [torr]","CavityTemp [C]","OutletValve","CH4_dry [ppm]","CO2_dry [ppm]","DasTemp [C]","EtalonTemp [C]","WarmBoxTemp [C]","MPVPosition","T_ECpre [C]","T_EC1 [C]","T_EC2 [C]","p_inlet [hPa]","p_in [hPa]","p_out [hPa]","T_inlet [C]","RH_inlet [%]","dwpt_inlet [C]","T_vent [C]","RH_vent [%]","dwpt_vent [C]","flow_vent [l min-1]","flow_inlet [l min-1]","dwpt_sample [C]","T_room [C]"
2015-02-20 00:00:00,0.0,1.96802,0.00045,407.405,0.027,0.0836,0.0018,139.999,45.000,34407.25514,1.96966,407.815,34.012,45.068,45.000,0.00,0.09,-272.70,-272.76,-9,976,-3,20.8,2.7,-27.0,21.1,2.7,-26.7,5.73,2.01,-18.6,27.2
2015-02-20 00:01:00,0.0,1.96795,0.00045,407.429,0.025,0.0836,0.0016,140.002,45.000,34409.19609,1.96955,407.838,34.014,45.068,45.000,0.00,0.09,-272.70,-272.75,-8,976,-3,20.8,2.7,-27.0,21.2,2.8,-26.6,5.73,2.04,-18.6,27.2
2015-02-20 00:02:00,0.0,1.96759,0.00038,407.422,0.038,0.0842,0.0016,140.001,45.000,34409.66745,1.96923,407.836,34.057,45.068,45.000,0.00,0.09,-272.69,-272.75,-8,976,-3,20.8,2.7,-26.9,21.2,2.7,-26.7,5.73,1.99,-18.6,27.2
2015-02-20 00:03:00,0.0,1.96745,0.00041,407.431,0.030,0.0833,0.0017,140.002,45.000,34411.49202,1.96909,407.839,34.069,45.068,45.000,0.00,0.09,-272.70,-272.76,-8,976,-3,20.8,2.7,-27.0,21.1,2.7,-26.7,5.73,1.93,-18.6,27.2
2015-02-20 00:04:00,0.0,1.96721,0.00038,407.415,0.025,0.0828,0.0024,140.000,45.000,34413.14880,1.96880,407.821,34.118,45.067,45.000,0.00,0.09,-272.70,-272.76,-9,976,-3,20.8,2.7,-27.0,21.1,2.7,-26.7,5.73,1.91,-18.7,27.2
2015-02-20 00:05:00,0.0,1.96745,0.00044,407.403,0.029,0.0828,0.0015,140.000,45.000,34410.98021,1.96904,407.807,34.120,45.067,45.000,0.00,0.09,-272.69,-272.75,-8,976,-3,20.8,2.7,-27.0,21.2,2.7,-26.7,5.73,1.96,-18.6,27.2
2015-02-20 00:06:00,0.0,1.96755,0.00033,407.429,0.031,0.0835,0.0018,140.002,45.000,34409.46364,1.96918,407.839,34.115,45.067,45.000,0.00,0.09,-272.69,-272.75,-8,976,-3,20.8,2.7,-26.9,21.1,2.7,-26.7,5.73,2.03,-18.6,27.3
2015-02-20 00:07:00,0.0,1.96772,0.00034,407.427,0.028,0.0842,0.0017,140.002,45.000,34405.27739,1.96933,407.840,34.115,45.067,45.000,0.00,0.09,-272.70,-272.76,-8,976,-3,20.8,2.7,-26.9,21.2,2.8,-26.6,5.73,2.03,-18.6,27.3
2015-02-20 00:08:00,0.0,1.96771,0.00025,407.412,0.029,0.0857,0.0019,140.002,45.000,34403.94281,1.96939,407.832,34.092,45.067,45.000,0.00,0.09,-272.69,-272.75,-9,976,-3,20.9,2.8,-26.7,21.2,2.8,-26.4,5.73,1.98,-18.6,27.3
2015-02-20 00:09:00,0.0,1.96748,0.00028,407.415,0.025,0.0862,0.0016,140.002,45.000,34407.06086,1.96914,407.839,34.064,45.067,45.000,0.00,0.09,-272.69,-272.75,-9,976,-3,20.9,2.8,-26.7,21.2,2.8,-26.4,5.73,1.93,-18.6,27.3
2015-02-20 00:10:00,0.0,1.96739,0.00029,407.414,0.035,0.0858,0.0020,139.999,45.000,34406.82713,1.96906,407.834,34.052,45.068,45.000,0.00,0.09,-272.70,-272.76,-8,976,-3,20.8,2.8,-26.7,21.2,2.8,-26.4,5.73,1.92,-18.6,27.3
2015-02-20 00:11:00,0.0,1.96723,0.00038,407.439,0.033,0.0841,0.0014,139.998,45.000,34406.51345,1.96886,407.852,34.018,45.068,45.000,0.00,0.09,-272.69,-272.76,-8,976,-3,20.9,2.8,-26.8,21.2,2.8,-26.5,5.73,1.97,-18.6,27.3
2015-02-20 00:12:00,0.0,1.96773,0.00036,407.418,0.028,0.0839,0.0023,140.003,45.000,34407.43390,1.96937,407.830,34.001,45.068,45.001,0.00,0.09,-272.69,-272.75,-8,976,-3,20.9,2.8,-26.8,21.2,2.8,-26.5,5.73,2.02,-18.6,27.3
2015-02-20 00:13:00,0.0,1.96752,0.00034,407.421,0.032,0.0840,0.0020,140.000,45.000,34408.39711,1.96912,407.834,34.004,45.068,45.001,0.00,0.09,-272.70,-272.75,-9,976,-3,20.9,2.8,-26.9,21.2,2.8,-26.6,5.73,2.03,-18.4,27.3
2015-02-20 00:14:00,0.0,1.96751,0.00028,407.442,0.030,0.0851,0.0019,140.000,45.000,34408.19668,1.96916,407.858,34.037,45.068,45.001,0.00,0.09,-272.70,-272.75,-8,976,-3,20.9,2.8,-26.8,21.2,2.8,-26.6,5.73,1.97,-17.5,27.2
2015-02-20 00:15:00,0.0,1.96735,0.00036,407.431,0.035,0.0856,0.0015,140.000,45.000,34407.78802,1.96904,407.852,34.063,45.068,45.000,0.00,0.09,-272.70,-272.75,-8,976,-3,20.9,2.8,-26.7,21.2,2.8,-26.5,5.73,1.92,-17.6,27.3
2015-02-20 00:16:00,0.0,1.96740,0.00038,407.410,0.031,0.0862,0.0016,139.998,45.000,34407.63836,1.96905,407.832,34.093,45.068,45.000,0.00,0.09,-272.70,-272.75,-8,976,-3,20.9,2.8,-26.7,21.2,2.8,-26.4,5.73,1.93,-17.7,27.2
2015-02-20 00:17:00,0.0,1.96762,0.00036,407.434,0.025,0.0856,0.0016,139.999,45.000,34405.84389,1.96928,407.853,34.080,45.067,45.000,0.00,0.09,-272.70,-272.76,-9,976,-3,20.9,2.8,-26.7,21.2,2.8,-26.4,5.73,1.97,-17.7,27.3
2015-02-20 00:18:00,0.0,1.96741,0.00044,407.450,0.032,0.0848,0.0014,140.002,45.000,34405.46315,1.96909,407.866,34.063,45.067,45.000,0.00,0.09,-272.70,-272.75,-8,976,-3,20.9,2.8,-26.7,21.2,2.8,-26.5,5.73,2.03,-17.8,27.3
2015-02-20 00:19:00,0.0,1.96746,0.00033,407.412,0.023,0.0862,0.0020,139.998,45.000,34404.38869,1.96907,407.835,34.062,45.067,45.000,0.00,0.09,-272.69,-272.75,-8,976,-3,20.9,2.8,-26.6,21.2,2.8,-26.4,5.73,2.02,-17.9,27.2
2015-02-20 00:20:00,0.0,1.96742,0.00030,407.427,0.025,0.0870,0.0020,140.001,45.000,34404.92384,1.96912,407.853,34.050,45.067,45.000,0.00,0.09,-272.70,-272.75,-8,976,-3,20.9,2.8,-26.5,21.2,2.8,-26.3,5.73,1.97,-17.9,27.2
2015-02-20 00:21:00,0.0,1.96750,0.00036,407.431,0.031,0.0872,0.0023,140.000,45.000,34405.08954,1.96921,407.858,34.061,45.067,45.000,0.00,0.09,-272.70,-272.76,-8,976,-3,20.9,2.8,-26.6,21.2,2.9,-26.2,5.73,1.92,-18.0,27.2
2015-02-20 00:22:00,0.0,1.96738,0.00031,407.448,0.023,0.0862,0.0015,139.999,45.000,34404.70480,1.96903,407.871,34.079,45.067,45.000,0.00,0.09,-272.69,-272.75,-9,976,-3,20.9,2.8,-26.6,21.2,2.8,-26.3,5.73,1.92,-18.0,27.3
2015-02-20 00:23:00,0.0,1.96739,0.00027,407.444,0.029,0.0860,0.0018,140.000,45.000,34404.25563,1.96908,407.867,34.114,45.067,45.000,0.00,0.09,-272.70,-272.75,-8,976,-3,20.9,2.8,-26.6,21.2,2.8,-26.3,5.73,1.97,-18.0,27.3
2015-02-20 00:24:00,0.0,1.96730,0.00040,407.455,0.027,0.0854,0.0014,140.001,45.000,34406.55741,1.96896,407.873,34.117,45.067,45.000,0.00,0.09,-272.69,-272.76,-8,976,-3,20.9,2.8,-26.6,21.2,2.8,-26.3,5.73,2.02,-18.0,27.3
2015-02-20 00:25:00,0.0,1.96708,0.00029,407.425,0.041,0.0851,0.0020,139.998,45.000,34407.38259,1.96875,407.842,34.122,45.067,45.000,0.00,0.09,-272.69,-272.75,-8,977,-3,20.9,2.8,-26.7,21.2,2.8,-26.4,5.73,2.02,-18.1,27.3
2015-02-20 00:26:00,0.0,1.96687,0.00033,407.418,0.028,0.0838,0.0021,140.002,45.000,34409.29007,1.96848,407.830,34.125,45.067,45.000,0.00,0.09,-272.69,-272.75,-9,976,-3,20.9,2.8,-26.7,21.2,2.8,-26.5,5.73,1.98,-18.1,27.2
2015-02-20 00:27:00,0.0,1.96704,0.00035,407.424,0.033,0.0846,0.0018,139.999,45.000,34406.99125,1.96868,407.838,34.170,45.067,45.000,0.00,0.09,-272.70,-272.75,-9,976,-3,20.9,2.8,-26.7,21.2,2.8,-26.4,5.73,1.93,-18.1,27.2
2015-02-20 00:28:00,0.0,1.96701,0.00027,407.419,0.034,0.0860,0.0015,140.001,45.000,34407.08033,1.96869,407.840,34.188,45.067,44.999,0.00,0.09,-272.70,-272.75,-8,976,-3,20.9,2.8,-26.6,21.2,2.8,-26.3,5.73,1.92,-18.2,27.2
2015-02-20 00:29:00,0.0,1.96691,0.00032,407.409,0.032,0.0865,0.0013,140.001,45.000,34408.70294,1.96858,407.834,34.180,45.067,44.999,0.00,0.09,-272.70,-272.75,-8,976,-3,20.9,2.8,-26.6,21.2,2.8,-26.3,5.73,1.97,-18.2,27.3
2015-02-20 00:30:00,0.0,1.96717,0.00040,407.449,0.037,0.0861,0.0016,140.001,45.000,34407.78765,1.96885,407.871,34.154,45.067,45.000,0.00,0.09,-272.70,-272.76,-9,976,-3,20.9,2.8,-26.7,21.2,2.8,-26.4,5.73,2.01,-18.2,27.3
2015-02-20 00:31:00,0.0,1.96729,0.00032,407.410,0.033,0.0854,0.0018,140.005,45.000,34408.77176,1.96891,407.830,34.124,45.067,45.000,0.00,0.09,-272.70,-272.76,-9,976,-3,20.9,2.8,-26.7,21.2,2.8,-26.4,5.73,2.03,-18.2,27.3
2015-02-20 00:32:00,0.0,1.96712,0.00030,407.426,0.028,0.0847,0.0014,139.999,45.000,34406.84161,1.96879,407.841,34.107,45.068,45.000,0.00,0.09,-272.69,-272.75,-8,976,-3,20.9,2.8,-26.8,21.2,2.8,-26.4,5.73,1.99,-18.2,27.3
2015-02-20 00:33:00,0.0,1.96707,0.00037,407.410,0.027,0.0843,0.0014,140.000,45.000,34406.84483,1.96868,407.822,34.060,45.068,45.001,0.00,0.09,-272.69,-272.75,-8,976,-3,20.9,2.8,-26.8,21.2,2.8,-26.6,5.73,1.94,-18.2,27.2
2015-02-20 00:34:00,0.0,1.96715,0.00048,407.430,0.023,0.0853,0.0017,140.002,45.000,34406.72652,1.96881,407.848,34.038,45.068,45.001,0.00,0.09,-272.70,-272.75,-8,976,-3,20.9,2.8,-26.8,21.2,2.8,-26.5,5.73,1.92,-18.2,27.2
2015-02-20 00:35:00,0.0,1.96698,0.00037,407.423,0.032,0.0859,0.0012,139.997,45.000,34406.49278,1.96866,407.844,34.038,45.068,45.001,0.00,0.09,-272.69,-272.75,-9,977,-3,20.9,2.8,-26.7,21.2,2.8,-26.4,5.73,1.95,-18.3,27.3
2015-02-20 00:36:00,0.0,1.96659,0.00039,407.418,0.034,0.0865,0.0014,140.002,45.000,34411.97326,1.96825,407.842,34.027,45.068,45.001,0.00,0.09,-272.69,-272.75,-9,976,-3,20.9,2.8,-26.7,21.2,2.8,-26.3,5.73,2.01,-18.3,27.3
2015-02-20 00:37:00,0.0,1.96689,0.00032,407.436,0.041,0.0862,0.0016,140.001,45.000,34408.06556,1.96858,407.857,34.032,45.068,45.001,0.00,0.09,-272.70,-272.76,-8,976,-3,20.9,2.8,-26.7,21.2,2.8,-26.3,5.73,2.03,-18.3,27.3
2015-02-20 00:38:00,0.0,1.96650,0.00033,407.434,0.028,0.0861,0.0019,140.000,45.000,34409.59526,1.96816,407.858,34.057,45.068,45.001,0.00,0.09,-272.70,-272.76,-8,977,-3,20.9,2.8,-26.6,21.2,2.8,-26.3,5.73,2.00,-18.3,27.3
2015-02-20 00:39:00,0.0,1.96668,0.00026,407.419,0.027,0.0866,0.0019,139.999,45.000,34407.89944,1.96835,407.844,34.062,45.068,45.000,0.00,0.09,-272.69,-272.75,-8,977,-3,20.9,2.8,-26.7,21.2,2.8,-26.3,5.73,1.95,-18.3,27.2
2015-02-20 00:40:00,0.0,1.96659,0.00028,407.402,0.036,0.0855,0.0014,139.999,45.000,34410.14913,1.96824,407.821,34.064,45.068,45.000,0.00,0.09,-272.70,-272.76,-9,976,-3,20.9,2.8,-26.7,21.2,2.8,-26.3,5.73,1.92,-18.3,27.3
2015-02-20 00:41:00,0.0,1.96669,0.00042,407.432,0.033,0.0861,0.0014,139.999,45.000,34410.21444,1.96836,407.855,34.063,45.067,45.000,0.00,0.09,-272.70,-272.76,-8,976,-3,20.9,2.8,-26.7,21.2,2.8,-26.3,5.73,1.94,-18.3,27.3
2015-02-20 00:42:00,0.0,1.96643,0.00042,407.423,0.027,0.0853,0.0016,140.000,45.000,34411.05612,1.96808,407.840,34.062,45.067,45.000,0.00,0.09,-272.70,-272.75,-8,976,-3,20.9,2.8,-26.7,21.2,2.8,-26.3,5.73,1.99,-18.3,27.3
2015-02-20 00:43:00,0.0,1.96670,0.00039,407.434,0.031,0.0859,0.0018,139.998,45.000,34410.43702,1.96838,407.856,34.059,45.067,45.000,0.00,0.09,-272.69,-272.75,-8,976,-3,20.9,2.8,-26.7,21.2,2.8,-26.3,5.73,2.02,-18.3,27.3
2015-02-20 00:44:00,0.0,1.96652,0.00039,407.428,0.024,0.0864,0.0019,140.001,45.000,34413.13059,1.96819,407.852,34.057,45.067,45.000,0.00,0.09,-272.70,-272.76,-9,976,-3,20.9,2.8,-26.7,21.2,2.8,-26.3,5.73,2.02,-18.3,27.3
2015-02-20 00:45:00,0.0,1.96671,0.00042,407.462,0.037,0.0857,0.0017,139.999,45.000,34411.69783,1.96839,407.882,34.059,45.067,45.000,0.00,0.09,-272.70,-272.75,-9,976,-3,20.9,2.8,-26.7,21.2,2.8,-26.3,5.73,1.96,-18.3,27.2
2015-02-20 00:46:00,0.0,1.96672,0.00036,407.406,0.033,0.0859,0.0015,140.000,45.000,34411.70387,1.96834,407.829,34.064,45.067,45.000,0.00,0.09,-272.69,-272.75,-8,976,-3,20.9,2.8,-26.6,21.2,2.8,-26.3,5.73,1.93,-18.3,27.3
2015-02-20 00:47:00,0.0,1.96660,0.00043,407.426,0.033,0.0855,0.0016,139.999,45.000,34411.19631,1.96829,407.845,34.067,45.067,45.000,0.00,0.09,-272.69,-272.76,-8,976,-3,20.9,2.8,-26.6,21.2,2.8,-26.4,5.73,1.92,-18.3,27.3
2015-02-20 00:48:00,0.0,1.96661,0.00034,407.432,0.027,0.0863,0.0019,140.000,45.000,34411.48175,1.96826,407.855,34.081,45.067,45.000,0.00,0.09,-272.70,-272.75,-8,976,-3,20.9,2.8,-26.5,21.2,2.8,-26.3,5.73,1.98,-18.4,27.3
2015-02-20 00:49:00,0.0,1.96653,0.00034,407.443,0.026,0.0873,0.0017,139.999,45.000,34409.97290,1.96822,407.871,34.096,45.067,45.000,0.00,0.09,-272.69,-272.75,-9,976,-3,20.9,2.8,-26.5,21.2,2.9,-26.2,5.73,2.02,-18.3,27.3
2015-02-20 00:50:00,0.0,1.96637,0.00029,407.441,0.030,0.0870,0.0011,139.997,45.000,34410.00928,1.96807,407.866,34.100,45.067,45.000,0.00,0.09,-272.70,-272.75,-8,976,-3,20.9,2.9,-26.5,21.2,2.9,-26.2,5.73,2.03,-18.4,27.3
2015-02-20 00:51:00,0.0,1.96685,0.00044,407.444,0.028,0.0873,0.0015,139.999,45.000,34410.87905,1.96851,407.873,34.083,45.067,45.000,0.00,0.09,-272.70,-272.76,-8,976,-3,20.9,2.9,-26.5,21.2,2.9,-26.2,5.73,1.99,-18.4,27.3
2015-02-20 00:52:00,0.0,1.96674,0.00045,407.432,0.031,0.0860,0.0017,140.000,45.000,34413.87518,1.96839,407.854,34.086,45.067,45.000,0.00,0.09,-272.70,-272.76,-8,976,-3,20.9,2.8,-26.6,21.2,2.8,-26.3,5.73,1.94,-18.4,27.3
2015-02-20 00:53:00,0.0,1.96737,0.00044,407.418,0.036,0.0856,0.0020,140.001,45.000,34414.10824,1.96905,407.839,34.118,45.067,45.000,0.00,0.09,-272.69,-272.75,-8,977,-3,20.9,2.8,-26.7,21.2,2.8,-26.4,5.73,1.92,-18.4,27.3
2015-02-20 00:54:00,0.0,1.96732,0.00047,407.437,0.030,0.0845,0.0014,139.997,45.000,34410.44153,1.96895,407.852,34.123,45.067,45.000,0.00,0.09,-272.70,-272.76,-9,976,-3,20.9,2.8,-26.7,21.2,2.8,-26.4,5.73,1.95,-18.4,27.3
2015-02-20 00:55:00,0.0,1.96668,0.00047,407.433,0.027,0.0849,0.0017,140.000,45.000,34412.17186,1.96837,407.848,34.113,45.067,45.000,0.00,0.09,-272.70,-272.75,-8,976,-3,20.9,2.8,-26.7,21.2,2.8,-26.5,5.73,2.00,-18.4,27.3
2015-02-20 00:56:00,0.0,1.96667,0.00034,407.445,0.035,0.0842,0.0022,140.000,45.000,34412.03415,1.96828,407.859,34.117,45.067,45.000,0.00,0.09,-272.70,-272.75,-8,976,-3,20.9,2.8,-26.8,21.2,2.8,-26.4,5.73,2.03,-18.4,27.2
2015-02-20 00:57:00,0.0,1.96646,0.00028,407.424,0.038,0.0858,0.0019,139.999,45.000,34412.78970,1.96811,407.844,34.106,45.067,45.000,0.00,0.09,-272.70,-272.75,-8,977,-3,20.9,2.8,-26.7,21.2,2.8,-26.4,5.73,2.00,-18.4,27.3
2015-02-20 00:58:00,0.0,1.96652,0.00027,407.428,0.036,0.0857,0.0016,140.001,45.000,34413.51424,1.96818,407.848,34.116,45.067,45.000,0.00,0.09,-272.70,-272.76,-9,976,-3,20.9,2.8,-26.6,21.2,2.8,-26.4,5.73,1.96,-18.4,27.3
2015-02-20 00:59:00,0.0,1.96681,0.00039,407.451,0.035,0.0846,0.0014,139.999,45.000,34411.16421,1.96843,407.867,34.125,45.067,45.000,0.00,0.09,-272.70,-272.75,-8,976,-3,20.9,2.8,-26.8,21.2,2.8,-26.5,5.73,1.92,-18.4,27.3
2015-02-20 01:00:00,0.0,1.96702,0.00029,407.454,0.046,0.0839,0.0019,139.999,45.000,34412.37623,1.96867,407.866,34.126,45.067,45.000,0.00,0.09,-272.69,-272.76,-8,976,-3,20.9,2.7,-26.9,21.3,2.8,-26.5,5.73,1.94,-18.4,27.3
2015-02-20 01:01:00,0.0,1.96686,0.00027,407.449,0.034,0.0834,0.0018,139.998,45.000,34410.96261,1.96845,407.857,34.122,45.067,45.000,0.00,0.09,-272.69,-272.76,-8,976,-3,20.9,2.7,-26.8,21.2,2.7,-26.6,5.73,1.98,-18.4,27.3
2015-02-20 01:02:00,0.0,1.96684,0.00039,407.427,0.029,0.0845,0.0012,140.001,45.000,34413.64409,1.96847,407.842,34.094,45.067,45.000,0.00,0.09,-272.69,-272.75,-8,976,-3,20.9,2.7,-26.9,21.2,2.7,-26.6,5.73,2.02,-18.4,27.3
2015-02-20 01:03:00,0.0,1.96694,0.00051,407.422,0.025,0.0847,0.0015,140.001,45.000,34413.89421,1.96863,407.837,34.070,45.068,45.000,0.00,0.09,-272.70,-272.75,-9,976,-3,20.9,2.8,-26.8,21.3,2.8,-26.5,5.73,2.02,-18.4,27.3
2015-02-20 01:04:00,0.0,1.96655,0.00034,407.435,0.034,0.0841,0.0016,140.002,45.000,34414.06223,1.96816,407.846,34.063,45.068,45.001,0.00,0.09,-272.70,-272.76,-8,976,-3,20.9,2.7,-26.8,21.2,2.8,-26.5,5.73,1.98,-18.4,27.3
2015-02-20 01:05:00,0.0,1.96651,0.00025,407.461,0.026,0.0862,0.0014,140.001,45.000,34412.84156,1.96818,407.883,34.063,45.068,45.001,0.00,0.09,-272.69,-272.76,-8,976,-3,20.9,2.8,-26.7,21.3,2.8,-26.4,5.73,1.93,-18.4,27.3
2015-02-20 01:06:00,0.0,1.96650,0.00033,407.451,0.024,0.0862,0.0020,140.002,45.000,34411.68063,1.96818,407.874,34.063,45.068,45.001,0.00,0.09,-272.70,-272.76,-8,976,-3,20.9,2.8,-26.6,21.3,2.8,-26.3,5.73,1.92,-18.4,27.3
2015-02-20 01:07:00,0.0,1.96647,0.00039,407.448,0.026,0.0871,0.0018,139.999,45.000,34411.25228,1.96816,407.876,34.063,45.068,45.001,0.00,0.09,-272.70,-272.76,-8,976,-3,20.9,2.8,-26.5,21.3,2.8,-26.3,5.73,1.95,-18.4,27.3
2015-02-20 01:08:00,0.0,1.96634,0.00037,407.471,0.033,0.0865,0.0018,140.000,45.000,34411.76006,1.96802,407.895,34.063,45.068,45.000,0.00,0.09,-272.70,-272.76,-8,976,-3,20.9,2.8,-26.5,21.3,2.8,-26.3,5.73,2.00,-18.4,27.3
2015-02-20 01:09:00,0.0,1.96621,0.00035,407.443,0.026,0.0857,0.0021,140.000,45.000,34413.45391,1.96784,407.865,34.077,45.068,45.000,0.00,0.09,-272.70,-272.75,-8,976,-3,20.9,2.8,-26.6,21.3,2.8,-26.3,5.73,2.02,-18.4,27.3
2015-02-20 01:10:00,0.0,1.96657,0.00035,407.448,0.032,0.0877,0.0016,139.999,45.000,34412.54560,1.96828,407.876,34.114,45.068,45.000,0.00,0.31,-270.98,-272.54,-8,976,-3,20.9,2.8,-26.5,21.3,2.8,-26.2,5.43,2.24,-20.3,27.3
2015-02-20 01:11:00,0.0,1.96645,0.00034,407.478,0.031,0.0878,0.0014,139.999,45.000,34410.57699,1.96815,407.909,34.154,45.067,45.000,0.00,0.09,-272.70,-272.75,-8,976,-3,20.9,2.9,-26.4,21.3,2.9,-26.2,5.73,1.97,-18.4,27.4
2015-02-20 01:12:00,0.0,1.96589,0.00040,407.452,0.030,0.0877,0.0019,139.999,45.000,34413.82432,1.96760,407.883,34.190,45.067,44.999,0.00,0.09,-272.70,-272.75,-8,976,-3,20.9,2.9,-26.4,21.3,2.9,-26.2,5.73,1.93,-18.4,27.3
2015-02-20 01:13:00,0.0,1.96589,0.00035,407.429,0.023,0.0883,0.0017,140.001,45.000,34415.42590,1.96759,407.862,34.198,45.067,44.999,0.00,0.09,-272.69,-272.75,-9,976,-3,20.9,2.8,-26.4,21.3,2.9,-26.1,5.73,1.93,-18.4,27.3
2015-02-20 01:14:00,0.0,1.96582,0.00039,407.436,0.029,0.0889,0.0015,139.999,45.000,34416.90089,1.96754,407.871,34.201,45.067,44.999,0.00,0.09,-272.70,-272.76,-8,976,-3,20.9,2.9,-26.4,21.3,2.9,-26.0,5.73,1.96,-18.4,27.3
2015-02-20 01:15:00,0.0,1.96584,0.00029,407.429,0.029,0.0880,0.0018,140.001,45.000,34416.57106,1.96758,407.862,34.196,45.067,44.999,0.00,0.09,-272.70,-272.76,-8,976,-3,20.9,2.9,-26.4,21.3,2.9,-26.1,5.73,2.00,-18.4,27.3
2015-02-20 01:16:00,0.0,1.96595,0.00050,407.448,0.033,0.0874,0.0013,140.002,45.000,34418.16654,1.96761,407.876,34.214,45.067,44.999,0.00,0.09,-272.69,-272.75,-8,977,-3,21.0,2.8,-26.5,21.3,2.9,-26.2,5.73,2.03,-18.3,27.3
2015-02-20 01:17:00,0.0,1.96644,0.00042,407.430,0.034,0.0876,0.0014,140.000,45.000,34416.39896,1.96812,407.859,34.209,45.067,45.000,0.00,0.09,-272.69,-272.75,-8,976,-3,21.0,2.8,-26.5,21.3,2.9,-26.2,5.73,2.01,-18.4,27.4
2015-02-20 01:18:00,0.0,1.96660,0.00047,407.442,0.027,0.0875,0.0011,139.999,45.000,34416.88082,1.96833,407.872,34.194,45.067,45.000,0.00,0.09,-272.70,-272.76,-9,976,-3,21.0,2.8,-26.5,21.3,2.9,-26.1,5.73,1.97,-18.4,27.3
2015-02-20 01:19:00,0.0,1.96653,0.00035,407.455,0.026,0.0868,0.0022,140.001,45.000,34416.22178,1.96821,407.880,34.193,45.067,45.000,0.00,0.09,-272.69,-272.75,-8,976,-3,21.0,2.8,-26.5,21.3,2.8,-26.2,5.73,1.93,-18.3,27.3
2015-02-20 01:20:00,0.0,1.96662,0.00040,407.448,0.034,0.0870,0.0015,140.001,45.000,34415.33002,1.96830,407.874,34.243,45.067,45.000,0.00,0.09,-272.70,-272.75,-8,976,-3,21.0,2.8,-26.5,21.3,2.8,-26.2,5.73,1.93,-18.3,27.3
2015-02-20 01:21:00,0.0,1.96639,0.00035,407.441,0.027,0.0870,0.0016,139.998,45.000,34414.83364,1.96807,407.867,34.257,45.067,45.000,0.00,0.09,-272.70,-272.76,-8,976,-3,21.0,2.8,-26.5,21.3,2.9,-26.2,5.73,1.96,-18.3,27.3
2015-02-20 01:22:00,0.0,1.96633,0.00034,407.457,0.019,0.0875,0.0018,140.001,45.000,34416.35298,1.96803,407.886,34.290,45.067,45.000,0.00,0.09,-272.70,-272.76,-9,976,-3,21.0,2.9,-26.4,21.3,2.9,-26.1,5.73,2.00,-18.3,27.4
2015-02-20 01:23:00,0.0,1.96640,0.00041,407.450,0.032,0.0876,0.0015,140.000,45.000,34418.41925,1.96810,407.880,34.298,45.067,45.000,0.00,0.09,-272.69,-272.75,-9,976,-3,21.0,2.9,-26.4,21.3,2.9,-26.2,5.73,2.02,-18.4,27.4
2015-02-20 01:24:00,0.0,1.96605,0.00032,407.433,0.034,0.0885,0.0018,140.000,45.000,34420.73080,1.96774,407.867,34.323,45.067,45.000,0.00,0.09,-272.70,-272.75,-8,976,-3,21.0,2.8,-26.4,21.3,2.9,-26.1,5.73,2.01,-18.4,27.4
2015-02-20 01:25:00,0.0,1.96639,0.00037,407.436,0.033,0.0882,0.0014,140.001,45.000,34419.62531,1.96813,407.869,34.373,45.067,45.000,0.00,0.09,-272.70,-272.76,-8,976,-3,21.0,2.9,-26.4,21.3,2.9,-26.1,5.73,1.97,-18.3,27.3
2015-02-20 01:26:00,0.0,1.96662,0.00042,407.466,0.031,0.0879,0.0015,140.000,45.000,34417.63613,1.96829,407.896,34.375,45.067,44.999,0.00,0.09,-272.69,-272.75,-8,976,-3,21.0,2.8,-26.4,21.3,2.9,-26.2,5.73,1.94,-18.3,27.3
2015-02-20 01:27:00,0.0,1.96640,0.00042,407.446,0.026,0.0873,0.0014,140.003,45.000,34419.89537,1.96812,407.875,34.375,45.067,44.999,0.00,0.09,-272.69,-272.75,-9,976,-3,21.0,2.8,-26.5,21.3,2.9,-26.2,5.73,1.93,-18.3,27.4
2015-02-20 01:28:00,0.0,1.96597,0.00026,407.432,0.031,0.0880,0.0016,140.001,45.000,34421.88740,1.96765,407.864,34.373,45.067,44.999,0.00,0.09,-272.70,-272.76,-9,976,-3,21.0,2.9,-26.4,21.3,2.9,-26.2,5.73,1.95,-18.3,27.4
2015-02-20 01:29:00,0.0,1.96597,0.00033,407.433,0.041,0.0882,0.0014,140.000,45.000,34421.64582,1.96770,407.867,34.373,45.067,45.000,0.00,0.09,-272.69,-272.76,-8,976,-3,21.0,2.9,-26.4,21.3,2.9,-26.1,5.73,1.99,-18.3,27.4
2015-02-20 01:30:00,0.0,1.96605,0.00044,407.430,0.036,0.0870,0.0020,140.003,45.000,34424.17735,1.96775,407.856,34.373,45.067,45.000,0.00,0.09,-272.69,-272.76,-8,976,-3,21.0,2.8,-26.4,21.3,2.9,-26.1,5.73,2.01,-18.3,27.4
2015-02-20 01:31:00,0.0,1.96600,0.00031,407.440,0.031,0.0868,0.0015,140.001,45.000,34422.57477,1.96765,407.866,34.380,45.067,45.000,0.00,0.09,-272.69,-272.76,-8,977,-3,21.0,2.8,-26.5,21.3,2.9,-26.1,5.73,2.02,-18.3,27.4
2015-02-20 01:32:00,0.0,1.96644,0.00041,407.452,0.034,0.0875,0.0022,140.000,45.000,34421.11250,1.96812,407.882,34.382,45.067,45.000,0.00,0.09,-272.70,-272.76,-8,976,-3,21.0,2.8,-26.4,21.4,2.9,-26.1,5.73,1.99,-18.3,27.4
2015-02-20 01:33:00,0.0,1.96619,0.00049,407.451,0.041,0.0885,0.0015,139.996,45.000,34419.42535,1.96791,407.884,34.375,45.067,45.000,0.00,0.09,-272.69,-272.75,-9,976,-3,21.0,2.9,-26.4,21.4,2.9,-26.1,5.73,1.95,-18.3,27.4
2015-02-20 01:34:00,0.0,1.96621,0.00030,407.434,0.048,0.0877,0.0019,139.998,45.000,34422.73264,1.96791,407.864,34.374,45.068,45.000,0.00,0.09,-272.70,-272.75,-8,976,-3,21.0,2.9,-26.3,21.4,2.9,-26.1,5.73,1.93,-18.3,27.5
2015-02-20 01:35:00,0.0,1.96606,0.00043,407.418,0.027,0.0878,0.0017,140.003,45.000,34424.15105,1.96776,407.849,34.363,45.068,45.000,0.00,0.09,-272.70,-272.76,-8,976,-3,21.1,2.8,-26.3,21.4,2.9,-26.1,5.73,1.93,-18.3,27.4
2015-02-20 01:36:00,0.0,1.96582,0.00038,407.428,0.035,0.0877,0.0015,140.003,45.000,34425.49014,1.96756,407.858,34.333,45.068,45.000,0.00,0.09,-272.70,-272.76,-8,977,-3,21.0,2.8,-26.4,21.4,2.9,-26.1,5.73,1.97,-18.3,27.4
2015-02-20 01:37:00,0.0,1.96562,0.00042,407.430,0.035,0.0884,0.0015,140.000,45.000,34427.55908,1.96730,407.864,34.312,45.068,45.001,0.00,0.09,-272.70,-272.75,-8,977,-3,21.0,2.8,-26.4,21.4,2.9,-26.1,5.73,2.00,-18.3,27.4
2015-02-20 01:38:00,0.0,1.96606,0.00037,407.409,0.038,0.0877,0.0014,140.001,45.000,34429.39432,1.96774,407.839,34.263,45.068,45.001,0.00,0.09,-272.70,-272.76,-9,977,-3,21.0,2.8,-26.4,21.4,2.9,-26.1,5.73,2.02,-18.3,27.4
2015-02-20 01:39:00,0.0,1.96600,0.00044,407.418,0.037,0.0882,0.0019,139.998,45.000,34427.15050,1.96773,407.851,34.250,45.068,45.001,0.00,0.09,-272.70,-272.75,-9,976,-3,21.1,2.9,-26.3,21.4,2.9,-26.1,5.73,2.01,-18.3,27.4
2015-02-20 01:40:00,0.0,1.96586,0.00040,407.430,0.033,0.0886,0.0017,140.000,45.000,34428.95459,1.96757,407.864,34.249,45.068,45.001,0.00,0.09,-272.69,-272.75,-8,976,-3,21.0,2.8,-26.4,21.4,2.9,-26.0,5.73,1.97,-18.3,27.4
2015-02-20 01:41:00,0.0,1.96594,0.00041,407.419,0.025,0.0892,0.0020,140.001,45.000,34429.34691,1.96767,407.855,34.250,45.068,45.001,0.00,0.09,-272.70,-272.76,-8,976,-3,21.0,2.9,-26.3,21.4,2.9,-26.0,5.73,1.94,-18.3,27.4
2015-02-20 01:42:00,0.0,1.96605,0.00040,407.430,0.034,0.0887,0.0012,140.000,45.000,34430.44651,1.96779,407.866,34.251,45.068,45.001,0.00,0.09,-272.70,-272.76,-8,977,-3,21.1,2.8,-26.4,21.4,2.9,-26.0,5.73,1.93,-18.3,27.4
2015-02-20 01:43:00,0.0,1.96578,0.00043,407.416,0.032,0.0890,0.0016,139.998,45.000,34430.29395,1.96749,407.851,34.250,45.068,45.001,0.00,0.09,-272.69,-272.75,-9,976,-3,21.0,2.9,-26.3,21.4,2.9,-26.0,5.73,1.94,-18.3,27.4
2015-02-20 01:44:00,0.0,1.96594,0.00040,407.434,0.024,0.0897,0.0015,140.001,45.000,34430.75151,1.96766,407.876,34.240,45.068,45.000,0.00,0.09,-272.70,-272.76,-9,976,-3,21.1,2.9,-26.3,21.4,2.9,-25.9,5.73,1.98,-18.3,27.4
2015-02-20 01:45:00,0.0,1.96595,0.00032,407.424,0.028,0.0898,0.0015,140.003,45.000,34430.78959,1.96773,407.863,34.250,45.068,45.000,0.00,0.09,-272.70,-272.76,-8,976,-3,21.1,2.9,-26.2,21.4,2.9,-25.9,5.73,2.01,-18.3,27.5
2015-02-20 01:46:00,0.0,1.96581,0.00039,407.426,0.043,0.0906,0.0014,140.003,45.000,34429.77912,1.96759,407.870,34.261,45.068,45.000,0.00,0.09,-272.69,-272.75,-8,976,-3,21.1,2.9,-26.1,21.4,2.9,-25.8,5.73,2.01,-18.3,27.5